TimeEDT,TemperatureF,Dew PointF,Humidity,Sea Level PressureIn,VisibilityMPH,Wind Direction,Wind SpeedMPH,Gust SpeedMPH,PrecipitationIn,Events,Conditions,WindDirDegrees,DateUTC
12:15 AM,73.2,61.7,67,30.03,10.0,Calm,Calm,-,N/A,,Clear,0,2013-06-13 04:15:00
12:35 AM,72.3,61.7,69,30.03,10.0,West,5.8,-,N/A,,Clear,280,2013-06-13 04:35:00
12:55 AM,73.4,61.3,66,30.04,10.0,NNW,5.8,-,N/A,,Clear,330,2013-06-13 04:55:00
1:15 AM,74.1,60.6,63,30.03,10.0,West,3.5,-,N/A,,Clear,270,2013-06-13 05:15:00
1:35 AM,73.4,60.3,63,30.03,10.0,Calm,Calm,-,N/A,,Clear,0,2013-06-13 05:35:00
1:55 AM,73.9,58.3,58,30.03,10.0,West,6.9,-,N/A,,Clear,260,2013-06-13 05:55:00
2:15 AM,74.3,59.9,61,30.03,10.0,West,17.3,21.9,N/A,,Clear,280,2013-06-13 06:15:00
2:35 AM,74.5,60.3,61,30.02,10.0,West,21.9,31.1,N/A,,Clear,270,2013-06-13 06:35:00
2:55 AM,74.5,59.9,60,30.02,10.0,West,19.6,26.5,N/A,,Clear,280,2013-06-13 06:55:00
3:15 AM,74.5,60.8,62,30.01,10.0,West,23.0,36.8,N/A,,Clear,270,2013-06-13 07:15:00
3:35 AM,74.7,60.8,62,30.01,10.0,West,19.6,33.4,N/A,,Clear,270,2013-06-13 07:35:00
3:55 AM,74.5,60.4,61,30.00,10.0,West,23.0,35.7,N/A,,Scattered Clouds,270,2013-06-13 07:55:00
4:15 AM,74.3,60.3,61,30.00,10.0,West,19.6,31.1,N/A,,Scattered Clouds,260,2013-06-13 08:15:00
4:35 AM,73.9,59.9,61,29.98,10.0,West,23.0,33.4,N/A,,Mostly Cloudy,270,2013-06-13 08:35:00
4:55 AM,73.4,59.7,62,29.98,10.0,West,18.4,26.5,N/A,,Mostly Cloudy,260,2013-06-13 08:55:00
5:15 AM,73.4,59.4,61,29.98,10.0,West,18.4,36.8,N/A,,Scattered Clouds,270,2013-06-13 09:15:00
5:35 AM,72.9,59.9,64,29.97,10.0,West,15.0,29.9,N/A,,Scattered Clouds,270,2013-06-13 09:35:00
5:55 AM,72.5,59.7,64,29.96,10.0,West,19.6,31.1,N/A,,Scattered Clouds,260,2013-06-13 09:55:00
6:15 AM,72.1,60.1,66,29.96,10.0,West,18.4,29.9,N/A,,Mostly Cloudy,260,2013-06-13 10:15:00
6:35 AM,72.1,60.1,66,29.95,10.0,West,19.6,33.4,N/A,,Mostly Cloudy,270,2013-06-13 10:35:00
6:55 AM,72.5,60.1,65,29.94,10.0,West,19.6,32.2,N/A,,Mostly Cloudy,270,2013-06-13 10:55:00
7:15 AM,72.1,60.8,67,29.93,10.0,West,19.6,26.5,N/A,,Mostly Cloudy,280,2013-06-13 11:15:00
7:35 AM,72.7,60.8,66,29.92,10.0,West,19.6,31.1,N/A,,Mostly Cloudy,270,2013-06-13 11:35:00
7:55 AM,72.7,60.6,66,29.92,10.0,West,24.2,33.4,N/A,,Mostly Cloudy,270,2013-06-13 11:55:00
8:15 AM,72.9,60.4,65,29.93,10.0,West,20.7,33.4,N/A,,Mostly Cloudy,270,2013-06-13 12:15:00
8:35 AM,73.9,60.3,62,29.93,10.0,West,18.4,33.4,N/A,,Scattered Clouds,260,2013-06-13 12:35:00
8:55 AM,74.3,59.9,61,29.92,10.0,West,12.7,27.6,N/A,,Scattered Clouds,270,2013-06-13 12:55:00
9:15 AM,74.7,59.4,59,29.91,10.0,West,24.2,34.5,N/A,,Scattered Clouds,270,2013-06-13 13:15:00
9:35 AM,75.6,59.0,56,29.92,10.0,West,19.6,36.8,N/A,,Scattered Clouds,270,2013-06-13 13:35:00
9:55 AM,75.9,59.0,56,29.91,10.0,West,19.6,29.9,N/A,,Mostly Cloudy,260,2013-06-13 13:55:00
10:15 AM,76.3,58.8,55,29.90,10.0,West,18.4,27.6,N/A,,Mostly Cloudy,260,2013-06-13 14:15:00
10:35 AM,77.2,58.8,53,29.90,10.0,West,15.0,27.6,N/A,,Mostly Cloudy,260,2013-06-13 14:35:00
10:55 AM,76.5,59.0,55,29.89,10.0,SW,10.4,25.3,N/A,,Mostly Cloudy,230,2013-06-13 14:55:00
11:15 AM,77.7,59.0,52,29.90,10.0,West,11.5,24.2,N/A,,Mostly Cloudy,260,2013-06-13 15:15:00
11:35 AM,78.8,58.5,50,29.90,10.0,WSW,13.8,18.4,N/A,,Mostly Cloudy,250,2013-06-13 15:35:00
11:55 AM,79.5,58.5,48,29.88,10.0,West,15.0,33.4,N/A,,Mostly Cloudy,270,2013-06-13 15:55:00
12:15 PM,78.4,57.9,49,29.88,10.0,WSW,13.8,23.0,N/A,,Mostly Cloudy,250,2013-06-13 16:15:00
12:35 PM,78.6,58.3,50,29.88,10.0,WSW,15.0,21.9,N/A,,Overcast,240,2013-06-13 16:35:00
12:55 PM,78.1,59.4,52,29.87,10.0,WSW,13.8,21.9,N/A,,Overcast,250,2013-06-13 16:55:00
1:15 PM,79.0,59.2,51,29.87,10.0,West,15.0,18.4,N/A,,Mostly Cloudy,260,2013-06-13 17:15:00
1:35 PM,79.5,59.4,50,29.85,10.0,WSW,13.8,31.1,N/A,,Mostly Cloudy,250,2013-06-13 17:35:00
1:55 PM,78.8,59.0,51,29.86,10.0,WSW,20.7,31.1,N/A,,Overcast,250,2013-06-13 17:55:00
2:15 PM,77.9,59.5,53,29.85,10.0,West,15.0,28.8,N/A,,Overcast,260,2013-06-13 18:15:00
2:35 PM,76.3,61.2,59,29.86,10.0,West,16.1,25.3,N/A,,Overcast,270,2013-06-13 18:35:00
2:55 PM,68.5,56.8,66,-9999,5.0,West,25.3,43.7,0.06,Rain,Rain,280,2013-06-13 18:55:00
3:15 PM,67.1,58.3,73,29.87,10.0,West,15.0,20.7,N/A,,Scattered Clouds,280,2013-06-13 19:15:00
3:35 PM,68.4,59.2,72,-9999,7.0,West,25.3,36.8,N/A,Rain,Light Rain,280,2013-06-13 19:35:00
3:55 PM,66.4,58.1,75,29.86,10.0,West,20.7,26.5,0.02,Rain,Light Rain,270,2013-06-13 19:55:00
4:15 PM,65.7,57.0,74,29.85,10.0,West,21.9,29.9,N/A,Rain,Light Rain,270,2013-06-13 20:15:00
4:35 PM,65.7,57.4,75,29.84,7.0,West,19.6,32.2,N/A,Rain,Light Rain,270,2013-06-13 20:35:00
4:55 PM,66.2,57.7,74,29.82,7.0,West,23.0,34.5,N/A,Rain,Light Rain,280,2013-06-13 20:55:00
5:15 PM,66.6,58.1,74,29.84,10.0,West,20.7,29.9,N/A,,Scattered Clouds,280,2013-06-13 21:15:00
5:35 PM,65.8,58.1,76,29.82,10.0,WNW,23.0,32.2,N/A,,Mostly Cloudy,300,2013-06-13 21:35:00
5:55 PM,66.4,56.7,71,29.81,10.0,NW,18.4,39.1,N/A,,Scattered Clouds,310,2013-06-13 21:55:00
6:15 PM,66.7,56.5,70,29.81,10.0,WNW,13.8,27.6,N/A,,Scattered Clouds,300,2013-06-13 22:15:00
6:35 PM,66.9,56.3,69,29.82,10.0,WNW,17.3,34.5,N/A,,Mostly Cloudy,300,2013-06-13 22:35:00
6:55 PM,67.3,56.1,67,29.81,10.0,NW,13.8,27.6,N/A,,Scattered Clouds,320,2013-06-13 22:55:00
7:15 PM,67.1,55.9,67,29.83,10.0,WNW,16.1,32.2,N/A,,Mostly Cloudy,300,2013-06-13 23:15:00
7:35 PM,67.1,56.3,68,29.85,10.0,WNW,12.7,19.6,N/A,,Mostly Cloudy,300,2013-06-13 23:35:00
7:55 PM,67.1,55.8,67,29.84,10.0,NW,20.7,31.1,N/A,,Scattered Clouds,320,2013-06-13 23:55:00
8:15 PM,66.6,55.4,67,29.83,10.0,NW,20.7,26.5,N/A,,Clear,320,2013-06-14 00:15:00
8:35 PM,66.0,55.4,69,29.83,10.0,NW,23.0,34.5,N/A,,Clear,310,2013-06-14 00:35:00
8:55 PM,65.8,55.4,69,29.83,10.0,NW,13.8,28.8,N/A,,Clear,310,2013-06-14 00:55:00
9:15 PM,66.0,55.4,69,29.83,10.0,NW,15.0,33.4,N/A,,Scattered Clouds,310,2013-06-14 01:15:00
9:35 PM,66.0,55.6,69,29.83,10.0,NW,21.9,33.4,N/A,,Scattered Clouds,320,2013-06-14 01:35:00
9:55 PM,65.7,55.8,70,29.85,10.0,NW,18.4,29.9,N/A,,Scattered Clouds,310,2013-06-14 01:55:00
10:15 PM,65.3,56.3,73,29.87,10.0,NW,9.2,25.3,N/A,,Mostly Cloudy,320,2013-06-14 02:15:00
10:35 PM,64.6,56.1,74,29.88,10.0,NW,21.9,32.2,N/A,Rain,Light Rain,320,2013-06-14 02:35:00
10:55 PM,63.1,50.9,64,29.90,10.0,NNW,12.7,24.2,N/A,,Mostly Cloudy,330,2013-06-14 02:55:00
11:15 PM,62.1,49.5,63,29.90,10.0,NNW,16.1,25.3,N/A,,Mostly Cloudy,330,2013-06-14 03:15:00
11:35 PM,61.0,49.3,65,29.91,10.0,NNW,12.7,23.0,N/A,,Scattered Clouds,330,2013-06-14 03:35:00
11:55 PM,60.1,48.6,66,29.91,10.0,NNW,15.0,21.9,N/A,,Clear,340,2013-06-14 03:55:00